Flag for U.S.A. Weather past 2 weeks in Chula Vista, California, U.S.A.

Now
61 °F

Partly sunny.


Feels Like: 61 °F
Forecast: 56 / 70 °F
Wind: No wind

Location: Brown Field Municipal Airport


UV Index: 5 (Moderate)

Visibility: 10 mi


Pressure: 29.96 "Hg

Humidity: 78%

Dew point: 54 °F

Location of Chula VistaLocation

Historic Weather in Chula Vista

°F

Chula Vista temperature yesterday

Maximum temperature yesterday: 69 °F (at 11:53 AM)
Minimum temperature yesterday: 59 °F (at 12:53 AM)
Average temperature yesterday: 62 °F

Past Weeks' High & Low Weather Summary

 TemperatureHumidityPressure
High87 °F (Apr 8, 1:53 PM)100% (Apr 15, 6:53 AM)30.08 "Hg (Apr 15, 6:53 AM)
Low44 °F (Apr 4, 6:53 AM)11% (Apr 10, 9:53 AM)29.80 "Hg (Apr 16, 3:53 PM)
Average62 °F62%29.96 "Hg
* Reported Apr 4 6:53 AM — Apr 19 6:53 AM, Chula Vista, Weather by CustomWeather, © 2014

Note: Actual official high and low records may vary slightly from our data, if they occured in-between our weather recording intervals... More about our weather records

Advertising

Historic Weather Conditions — Data for Previous 24 hours

 ConditionsComfort  
Time TempWeatherWind HumidityBarometerVisibility
6:53 AM
Apr 19
58 °FClear.3 mph78%29.95 "Hg10 mi
5:53 AM57 °FClear.No wind78%29.91 "Hg10 mi
4:53 AM61 °FOvercast.No wind72%29.91 "Hg10 mi
3:53 AM61 °FOvercast.No wind75%29.92 "Hg10 mi
2:53 AM60 °FOvercast.3 mph78%29.92 "Hg10 mi
1:53 AM60 °FOvercast.No wind78%29.93 "Hg10 mi
12:53 AM60 °FOvercast.3 mph75%29.94 "Hg10 mi
11:53 PM
Apr 18
60 °FOvercast.3 mph80%29.94 "Hg10 mi
10:53 PM61 °FOvercast.No wind72%29.93 "Hg10 mi
9:53 PM60 °FOvercast.3 mph78%29.94 "Hg10 mi
8:53 PM61 °FOvercast.3 mph72%29.93 "Hg10 mi
7:53 PM60 °FOvercast.5 mph75%29.91 "Hg10 mi
6:53 PM61 °FOvercast.6 mph72%29.90 "Hg10 mi
5:53 PM62 °FOvercast.10 mph70%29.88 "Hg10 mi
4:53 PM64 °FOvercast.10 mph68%29.87 "Hg10 mi
3:53 PM65 °FPassing clouds.9 mph68%29.86 "Hg10 mi
2:53 PM68 °FSunny.12 mph59%29.87 "Hg10 mi
1:53 PM69 °FSunny.8 mph55%29.89 "Hg10 mi
12:53 PM69 °FScattered clouds.10 mph53%29.89 "Hg10 mi
11:53 AM69 °FSunny.7 mph49%29.94 "Hg10 mi
10:53 AM65 °FOvercast.6 mph59%29.93 "Hg10 mi
9:53 AM64 °FOvercast.9 mph63%29.93 "Hg10 mi
8:53 AM62 °FOvercast.8 mph67%29.91 "Hg10 mi
Weather by CustomWeather, © 2014

See weather overview